EHI
0 0 0 0 0 0 0 0 0 0 1 0 0 1 2 3 2 2 2 4 4 5 7 11 14 15 16 17 20 21 19 16 16 15 16 19 17 11 9 8 6 6 6 4
0 0 0 0 0 0 0 0 0 0 1 0 1 2 3 3 2 2 3 4 4 5 7 11 12 12 13 16 18 18 16 15 16 16 17 17 15 12 10 9 8 7 6 5
0 0 0 0 0 0 0 0 0 0 0 0 1 3 5 4 1 2 4 5 4 5 6 8 10 10 11 15 16 15 14 16 16 16 14 13 11 10 10 9 8 7 6 5
0 0 0 0 0 0 0 0 0 0 0 0 0 2 5 5 2 2 4 4 4 4 4 6 9 11 12 12 12 14 16 17 16 14 12 9 6 6 7 8 7 7 6 5
0 0 0 0 0 0 0 0 0 0 0 0 0 0 2 4 3 1 2 3 4 4 5 7 10 11 10 8 9 13 17 19 17 14 12 7 4 4 6 6 6 5 4 3
0 0 0 0 0 0 0 0 0 0 0 0 0 0 1 2 2 1 0 1 3 5 6 8 9 10 9 7 8 11 17 21 20 16 12 7 4 4 4 4 4 2 1 1
0 0 0 0 0 0 0 0 0 0 0 0 0 0 0 0 1 2 1 1 2 4 6 7 10 11 10 8 7 11 18 22 21 16 10 6 4 3 2 2 2 1 0 0
0 0 0 0 0 0 0 0 0 0 0 0 0 0 0 0 1 2 2 1 1 2 3 6 10 12 11 9 8 11 17 19 17 14 10 7 4 2 2 2 1 1 1 1
0 0 0 0 0 0 0 0 0 0 0 0 0 0 0 0 1 3 4 2 0 0 2 5 8 9 9 9 10 12 15 16 14 12 10 7 4 3 2 3 2 1 0 0
0 0 0 0 0 0 0 0 0 0 0 0 0 0 0 1 2 4 4 3 1 1 2 4 5 6 7 10 12 13 15 16 14 12 10 8 7 6 4 3 3 1 1 0
0 0 0 0 0 0 0 0 0 0 0 0 0 0 0 1 2 3 4 3 1 1 2 3 3 4 6 10 14 15 16 17 15 13 11 11 11 10 7 5 3 3 2 1
0 0 0 0 0 0 0 0 0 0 0 0 0 0 0 1 2 3 3 2 1 0 1 1 2 3 6 11 14 17 17 16 15 14 14 15 16 14 11 8 5 4 4 4
0 0 0 0 0 0 0 0 0 0 0 0 0 0 0 0 1 2 1 1 0 0 0 1 2 5 7 11 15 16 16 14 13 14 16 18 19 18 15 11 8 6 6 6
0 0 0 0 0 0 0 0 0 0 0 0 0 0 0 0 0 0 0 0 0 0 1 2 4 7 11 14 16 16 15 13 14 17 21 22 23 20 16 13 10 8 7 6
1 1 0 0 0 0 0 0 0 0 0 0 0 0 0 0 0 0 0 0 1 2 3 5 7 12 17 20 21 21 22 22 24 26 28 28 27 23 18 14 11 8 6 5
1 1 0 0 0 0 0 0 0 0 0 0 0 0 0 0 1 1 1 1 1 3 5 6 9 16 23 27 29 30 32 34 35 33 31 30 28 25 20 15 11 7 4 4
1 0 0 0 0 0 0 0 0 0 0 0 0 0 0 0 2 3 3 2 2 4 6 8 13 20 25 30 34 37 38 40 39 33 28 25 23 21 18 13 9 5 3 3
0 0 0 0 0 0 0 0 0 0 0 0 0 0 0 0 1 2 3 3 3 4 6 10 14 19 25 30 36 39 41 41 37 30 23 19 16 14 14 11 9 7 6 5
0 0 0 0 0 0 0 0 0 0 0 0 0 0 0 0 0 1 1 2 3 4 6 9 11 15 22 27 34 39 40 38 33 26 20 14 12 12 12 12 11 11 11 11
0 0 0 0 0 0 0 0 0 0 0 0 0 0 0 0 1 0 0 0 2 5 8 9 10 12 17 22 29 33 32 27 23 19 15 12 10 10 10 11 11 12 13 13
0 0 0 0 0 0 0 0 0 1 0 0 0 0 1 2 2 2 1 2 4 7 9 12 13 13 14 17 23 25 22 17 13 11 10 9 8 7 7 9 9 10 9 8
0 0 0 0 0 0 0 0 1 2 1 0 0 1 2 3 3 3 3 5 6 7 8 10 12 13 13 14 16 17 15 12 9 8 8 8 6 4 3 6 7 6 5 5
0 1 1 0 0 0 0 0 1 1 1 0 0 1 1 1 2 2 3 4 5 5 5 6 8 9 8 9 10 11 11 11 10 9 10 10 7 3 1 3 5 3 3 3
1 1 1 0 0 0 0 0 0 1 1 1 1 0 0 0 1 1 1 2 2 3 3 4 5 5 4 3 4 6 7 8 9 10 12 11 8 3 2 3 2 2 2 2
0 0 0 0 0 0 0 0 0 1 1 1 1 0 0 0 0 0 0 1 1 1 3 3 3 3 2 2 2 3 4 4 5 8 9 9 6 4 3 3 1 1 2 2
0 0 0 0 0 0 0 0 0 0 0 1 0 0 0 0 0 0 0 0 0 1 2 3 3 2 1 2 3 2 1 1 2 5 6 6 4 4 3 2 1 1 1 2
Wind_Speed
8 10 9 5 6 9 9 10 9 5 0 6 7 5 4 7 7 7 7 6 6 6 8 8 9 9 9 9 9 9 9 8 6 5 5 5 5 4 4 4 5 5 4 4
9 11 7 5 6 8 10 10 8 1 2 5 5 6 5 7 8 7 8 8 8 8 9 9 10 10 9 9 9 9 9 9 7 5 3 3 4 4 4 4 5 5 4 4
14 5 1 6 7 8 9 8 8 5 2 6 6 6 7 7 8 8 8 8 8 10 10 11 11 11 11 10 10 9 8 8 7 6 5 5 4 4 5 5 5 4 4 4
12 8 7 9 8 7 7 3 5 5 7 3 4 6 6 8 9 10 10 9 10 10 11 11 12 12 11 10 9 9 8 8 7 7 6 7 5 5 5 4 4 5 4 3
10 7 8 9 6 6 4 1 4 6 7 7 5 8 2 7 8 10 11 11 11 12 12 12 12 12 11 11 10 9 9 8 8 6 7 6 6 5 5 5 5 4 4 4
13 7 7 6 1 2 4 5 5 7 8 6 2 7 1 3 6 8 10 11 12 13 12 12 12 12 11 11 10 10 9 8 8 7 7 6 5 5 5 5 5 5 4 4
15 13 9 6 6 6 8 8 6 5 5 2 2 6 3 2 3 6 10 12 13 13 13 13 13 14 13 13 12 11 11 9 9 8 7 7 6 7 6 6 5 4 4 4
14 13 11 9 10 6 8 9 8 7 6 4 2 4 3 4 4 6 9 12 13 14 13 14 14 14 13 13 13 12 12 11 10 9 8 7 7 6 5 5 4 4 3 3
11 10 5 6 5 6 6 7 7 9 8 8 3 1 3 5 7 8 10 12 14 14 15 15 15 15 15 14 13 13 13 11 11 10 9 8 7 6 4 5 5 4 3 3
12 10 8 7 6 5 7 5 5 7 7 7 4 3 1 5 8 11 12 13 14 14 15 15 15 15 14 14 14 13 13 12 11 11 10 8 8 7 6 6 5 4 4 4
13 12 8 8 10 10 8 8 8 7 7 8 6 2 4 2 7 11 12 13 14 15 15 15 14 15 14 14 14 13 13 13 12 12 11 9 9 8 8 7 7 6 6 6
10 10 10 10 4 5 10 10 9 8 7 7 8 2 6 2 5 8 10 12 13 14 15 15 15 14 14 15 15 14 14 14 13 12 11 11 10 9 9 8 8 7 7 7
8 8 10 8 8 8 9 10 11 10 8 8 9 2 7 4 4 7 9 11 12 14 15 15 15 15 15 15 14 14 15 14 14 13 13 12 11 11 10 9 8 8 7 7
5 8 11 11 6 6 9 10 11 11 9 9 9 7 3 4 4 6 8 10 12 14 14 14 14 15 15 14 14 14 15 14 14 13 13 12 12 11 11 10 9 9 9 8
6 8 10 10 7 7 9 10 11 13 13 12 9 8 4 2 2 4 6 9 11 13 14 15 14 14 14 14 14 14 14 14 13 13 13 13 12 11 11 10 10 10 9 9
5 6 8 10 9 9 11 11 11 13 13 13 12 9 2 1 2 4 5 7 10 11 13 14 14 13 14 14 13 13 13 13 13 13 13 12 12 11 11 11 11 10 10 9
7 6 8 9 7 9 12 11 11 11 10 10 10 5 1 1 1 2 3 5 7 9 10 12 13 13 12 12 12 13 13 12 13 13 12 12 11 11 11 11 11 10 10 9
6 7 7 8 7 12 3 2 4 7 7 7 6 4 2 2 0 1 1 2 4 5 6 8 9 11 11 11 11 10 11 12 12 12 11 11 11 11 11 10 10 10 9 9
6 6 6 7 10 9 4 2 3 5 5 2 3 2 1 1 4 4 2 0 1 2 3 4 6 7 8 9 9 10 10 11 11 11 10 10 11 10 10 10 10 9 8 9
6 7 7 7 8 8 1 4 0 4 4 3 1 0 0 3 4 4 4 2 1 1 0 1 3 4 5 6 8 8 8 8 9 9 8 8 8 9 9 9 8 7 7 8
8 7 9 9 8 3 5 3 4 5 3 4 3 2 1 2 5 5 5 5 3 3 3 4 4 5 4 5 6 7 6 6 6 6 6 6 7 7 7 6 6 6 6 6
6 6 7 6 7 2 5 1 1 4 4 3 3 3 4 5 6 6 6 7 6 6 6 6 6 6 6 6 6 5 4 3 4 4 5 5 5 5 5 5 5 5 5 6
3 3 2 1 2 5 3 3 4 2 2 3 3 4 5 6 6 7 8 8 8 8 8 7 7 8 7 7 6 6 4 4 4 4 4 4 4 3 3 4 5 5 5 6
2 1 2 1 3 3 3 2 2 2 4 5 5 5 6 7 8 8 8 8 9 9 9 8 8 9 8 7 7 6 5 4 4 4 3 3 3 3 2 1 2 3 3 4
3 1 2 2 2 3 4 4 4 5 6 7 7 7 7 8 9 9 9 8 8 8 8 8 9 9 9 7 6 5 4 3 4 4 3 2 2 2 1 1 1 3 2 3
5 5 5 4 4 2 4 4 4 6 8 9 9 9 9 9 9 9 9 8 8 8 8 8 8 8 8 7 6 5 4 3 3 3 2 1 1 1 0 1 2 2 4 3
Wind_Direction
201 235 237 254 278 298 298 295 300 319 28 248 259 255 199 189 196 195 192 191 190 190 170 168 168 163 159 159 159 158 155 154 159 157 164 159 159 156 152 149 143 152 147 140
219 232 249 278 274 271 274 282 291 283 170 262 271 260 212 193 199 198 192 189 190 177 164 163 165 163 163 166 167 162 164 161 165 156 158 154 140 155 143 141 141 158 156 165
236 240 238 262 267 273 277 290 309 310 239 230 265 231 186 185 191 189 190 191 188 182 175 169 171 171 169 171 175 168 164 162 162 157 159 147 148 167 159 159 160 160 167 176
242 252 253 262 272 285 291 335 293 270 261 267 263 292 172 183 191 193 193 187 186 181 177 171 171 172 172 173 173 167 164 161 162 175 176 177 181 178 162 170 154 159 174 184
225 224 243 263 285 286 324 326 265 264 271 278 231 281 130 175 203 198 192 186 182 179 179 176 173 172 171 171 169 163 163 161 166 175 169 184 188 171 162 167 149 177 166 184
249 245 261 274 290 263 165 201 218 235 252 266 334 289 308 172 213 193 185 185 181 176 177 177 173 171 172 170 168 163 163 164 166 173 172 187 176 172 169 180 170 191 179 186
232 233 225 226 215 188 217 249 259 246 244 318 63 276 344 84 183 188 180 178 179 177 175 174 173 171 171 173 172 170 170 168 171 174 177 179 177 177 182 195 186 210 192 186
228 228 209 209 234 239 227 262 282 301 312 323 190 276 43 109 149 175 173 172 176 177 176 175 175 173 174 175 175 175 175 175 176 177 177 177 182 194 184 192 203 199 212 185
233 232 174 196 223 251 232 245 286 281 279 282 284 266 151 160 169 173 172 172 176 178 178 178 178 178 180 181 180 180 177 178 181 180 177 182 189 198 179 175 207 201 194 184
245 247 210 184 195 215 273 270 237 263 285 285 284 269 66 173 180 177 179 179 178 179 180 181 181 183 184 183 182 183 181 183 185 184 187 183 186 188 187 199 197 196 194 197
236 242 217 200 222 223 199 220 244 262 279 290 297 336 64 169 185 185 184 183 181 182 182 181 182 184 184 184 182 185 185 186 188 190 190 187 188 188 191 197 194 191 196 193
216 236 237 223 219 279 241 240 232 249 255 259 283 307 100 139 179 183 184 182 183 184 183 183 184 184 185 187 187 187 189 191 192 190 189 190 191 191 196 196 195 193 195 201
185 216 226 213 201 205 228 229 236 250 265 258 266 273 124 139 169 179 184 181 183 185 187 186 186 186 189 191 192 192 193 195 193 190 192 192 193 194 200 200 196 197 200 206
209 227 243 250 259 198 210 217 225 236 248 255 257 279 195 171 178 184 187 186 186 187 189 191 190 192 193 194 194 197 198 196 195 192 194 195 197 198 200 199 199 202 205 210
221 236 245 261 265 253 243 233 223 234 254 269 274 274 275 246 185 185 189 189 193 192 193 196 198 196 197 197 197 200 200 198 196 194 197 198 198 199 200 200 202 204 209 215
216 244 245 245 240 241 246 245 240 240 252 259 268 271 307 269 188 181 191 196 200 200 202 202 202 200 198 199 199 198 199 195 193 197 201 199 198 198 202 202 204 206 211 219
200 220 234 242 226 238 240 239 242 241 241 254 260 265 266 244 215 198 198 209 213 212 211 209 206 204 201 199 196 196 195 190 192 198 202 198 198 201 205 207 207 209 212 217
210 221 234 245 228 242 264 31 263 253 248 252 265 281 289 301 228 148 169 215 220 220 219 216 210 204 200 195 193 193 187 185 190 195 199 199 202 204 205 209 212 214 218 221
222 217 235 243 239 246 218 189 241 247 244 264 260 264 288 144 175 140 80 122 234 235 228 222 212 198 189 187 186 184 187 185 188 193 198 199 202 205 204 209 213 215 218 225
201 223 235 230 247 247 112 93 47 259 217 81 64 105 231 211 224 98 62 50 33 27 76 168 165 167 164 171 168 173 180 183 189 191 195 196 198 205 208 211 214 216 219 228
189 202 227 234 241 240 76 106 209 242 75 73 57 63 62 51 34 57 60 63 65 68 84 99 107 111 119 137 149 163 169 177 184 181 181 186 191 201 210 213 217 224 227 238
216 206 212 228 236 195 89 156 301 40 69 82 77 77 87 90 89 85 78 74 75 78 83 94 99 95 93 105 122 132 138 143 152 156 160 171 178 195 193 199 210 220 230 235
256 328 306 281 38 68 72 40 44 84 106 102 100 99 107 106 100 93 86 79 76 77 81 86 94 95 89 88 97 103 96 101 120 133 140 149 158 172 184 198 207 215 221 243
137 23 282 259 90 76 68 69 81 94 98 99 103 105 108 106 101 95 90 85 82 79 80 81 84 83 77 76 75 76 80 95 110 114 116 130 141 143 140 225 234 246 252 261
10 284 274 253 78 94 90 77 87 98 103 104 100 99 101 103 97 96 95 89 83 80 77 78 80 80 79 75 73 73 78 100 108 112 120 125 119 105 133 206 289 279 303 315
9 345 325 2 32 13 75 83 99 109 110 107 104 99 96 97 99 97 93 90 87 85 84 84 82 80 81 80 74 72 80 92 102 108 102 102 103 104 261 271 260 229 254 252